Home   Weather   Sunrise Manor   Past weeks
Flag for USA

Past Weather in Sunrise Manor, Nevada, USA — Yesterday and Last 2 Weeks

Now
73 °F

Passing clouds.


Feels Like: 75 °F
Forecast: 77 / 59 °F
Wind: 9 mph from West

Location: Nellis Air Force Base

Current Time: Oct 17, 2019 at 11:46:26 pm

Latest Report: Oct 17, 2019 at 10:58 pm


Visibility: 10 mi

Pressure: 29.56 "Hg (27.73 "Hg at 555m altitude)

Humidity: 19%

Dew Point: 29 °F

Location of Sunrise ManorLocation

Past Weather in Sunrise Manor — Graph

°F

Sunrise Manor Temperature Yesterday

Maximum temperature yesterday: 89 °F (at 2:58 pm)
Minimum temperature yesterday: 51 °F (at 6:58 am)
Average temperature yesterday: 69 °F

High & Low Weather Summary for the Past Weeks

 TemperatureHumidityPressure
High90 °F (Oct 9, 4:58 pm)29% (Oct 15, 2:58 am)30.25 "Hg (Oct 15, 2:58 am)
Low43 °F (Oct 12, 5:55 am)4% (Oct 12, 3:58 pm)29.46 "Hg (Oct 17, 5:58 pm)
Average68 °F14%29.91 "Hg
* Reported Oct 2 9:58 pm — Oct 17 9:58 pm, Sunrise Manor. Weather by CustomWeather, © 2019

Note: Actual official high and low records may vary slightly from our data, if they occured in-between our weather recording intervals... More about our weather records

Advertising

Sunrise Manor Weather History for the Previous 24 Hours

Scroll right to see more
 ConditionsComfort  
Time TempWeatherWind HumidityBarometerVisibility
9:58 pm
Thu, Oct 17
72 °FClear.13 mph22%29.53 "Hg10 mi
8:58 pm73 °FPassing clouds.18 mph20%29.51 "Hg10 mi
7:58 pm75 °FPassing clouds.21 mph18%29.49 "Hg10 mi
6:58 pm78 °FClear.25 mph17%29.47 "Hg10 mi
5:58 pm80 °FSunny.26 mph16%29.46 "Hg10 mi
4:58 pm82 °FSunny.18 mph15%29.48 "Hg10 mi
3:58 pm84 °FSunny.30 mph14%29.49 "Hg10 mi
2:58 pm85 °FSunny.22 mph13%29.50 "Hg10 mi
1:58 pm85 °FSunny.23 mph14%29.52 "Hg10 mi
12:58 pm83 °FSunny.21 mph16%29.62 "Hg10 mi
11:58 am81 °FScattered clouds.16 mph19%29.62 "Hg10 mi
10:58 am80 °FScattered clouds.21 mph20%29.64 "Hg10 mi
9:58 am76 °FScattered clouds.3 mph20%29.63 "Hg10 mi
8:58 am70 °FPartly sunny.6 mph22%29.65 "Hg10 mi
6:55 am61 °FPartly sunny.No wind27%29.67 "Hg10 mi
5:55 am60 °FPassing clouds.3 mph25%29.68 "Hg10 mi
4:55 am61 °FClear.6 mph24%29.69 "Hg10 mi
3:55 am60 °FPassing clouds.No wind23%29.70 "Hg10 mi
2:55 am66 °FClear.2 mph19%29.69 "Hg10 mi
1:55 am64 °FClear.No wind20%29.72 "Hg10 mi
12:55 am64 °FPassing clouds.2 mph18%29.71 "Hg10 mi
11:58 pm
Wed, Oct 16
66 °FPassing clouds.5 mph19%29.74 "Hg10 mi
Weather by CustomWeather, © 2019

See weather overview